Weather in Gubino

Russia / Tomsk District     56°35′08″N   84°37′42″E
temp.,
°C
wind,
m/s
gust,
m/s
humid.,
%
clouds,
%
prec.,
mm/h
press.,
hPa
HPBL,
m
11 may, tue
tue1101:00+9ne256452 0.0 1020113
04:00+6nne247372 0.0 102069
07:00+8ne310686 0.0 1020285
10:00+15ne484212 0.0 1019848
13:00+18ne5732100 0.0 10183137
16:00+18ne563496 0.0 10182543
19:00+17n574126 0.1 10191753
22:00+12n4125720 0.0 1020391
12 may, wed
wed1201:00+10nne311676 0.0 1020253
04:00+7n267743 0.0 1020105
07:00+9n236825 0.0 1020113
10:00+16nne234624 0.0 1019656
13:00+18nne2135100 0.0 10182295
16:00+17wnw1140100 0.0 10171781
19:00+17n224165 0.0 10171045
22:00+12e22585 0.0 101712
13 may, thu
thu1301:00+10s236724 0.0 101644
04:00+9s22745 0.0 101512
07:00+10s126840 0.0 101589
10:00+16sw234526 0.0 1015856
13:00+19w343293 0.0 10132681
16:00+18nw544088 0.1 10121633
19:00+15nnw455592 0.5 10131171
22:00+11nw276827 0.1 1014386
14 may, fri
fri1401:00+8wnw237954 0.1 101443
04:00+6wnw288193 0.0 1013197
07:00+8wnw41078100 0.3 1014893
10:00+6nnw696483 0.2 10161357
13:00+8nnw794798 0.2 10191842
16:00+11nnw692959 0.0 10192349
19:00+11nnw583198 0.0 10212096
22:00+6wnw2745100 0.0 1023160
15 may, sat
sat1501:00+5wsw355198 0.0 102294
04:00+6wsw4954100 0.1 1021794
07:00+6sw6158297 1.3 1018898
10:00+10wsw71466100 0.0 1016737
13:00+18w61152100 0.1 10141737
16:00+12n298988 0.6 1016434
19:00+10nne335779 0.0 10191106
22:00